"read_dt","SO2 (ppb)","flags","PMT voltage (V)","lamp voltage (V)","lamp intensity (Hz)","internal temp (C)","react chamber temp (C)","sample flow (l/min)","pres (mmHg)","SO2 bkg (ppb)","SO2 coefficient"
2015-11-29 00:00:00,1869E-3,5C000400,-0724,0831,12154,027.6,045.4,0.257,758.5,01.16,0.508
2015-11-29 00:01:00,1940E-3,5C000400,-0724,0831,12229,027.7,045.4,0.256,758.5,01.16,0.508
2015-11-29 00:02:00,1890E-3,5C000400,-0724,0831,12243,027.6,045.4,0.256,758.5,01.16,0.508
2015-11-29 00:03:00,1700E-3,5C000400,-0724,0832,12109,027.6,045.4,0.256,758.5,01.16,0.508
2015-11-29 00:04:00,1797E-3,5C000400,-0724,0832,12159,027.6,045.4,0.256,758.5,01.16,0.508
2015-11-29 00:05:00,1803E-3,5C000400,-0724,0831,12083,027.6,045.4,0.257,758.5,01.16,0.508
2015-11-29 00:06:00,1839E-3,5C000400,-0724,0833,12303,027.6,045.4,0.257,758.5,01.16,0.508
2015-11-29 00:07:00,1722E-3,5C000400,-0724,0832,12221,027.6,045.4,0.257,758.5,01.16,0.508
2015-11-29 00:08:00,1670E-3,5C000400,-0724,0831,12231,027.6,045.4,0.256,758.5,01.16,0.508
2015-11-29 00:09:00,1776E-3,5C000400,-0724,0831,12100,027.7,045.4,0.256,758.5,01.16,0.508
2015-11-29 00:10:00,1754E-3,5C000400,-0724,0831,12172,027.6,045.4,0.256,758.5,01.16,0.508
2015-11-29 00:11:00,1723E-3,5C000400,-0724,0832,12236,027.6,045.4,0.256,758.4,01.16,0.508
2015-11-29 00:12:00,1755E-3,5C000400,-0724,0831,12063,027.6,045.4,0.257,758.4,01.16,0.508
2015-11-29 00:13:00,1706E-3,5C000400,-0724,0831,12080,027.6,045.4,0.257,758.4,01.16,0.508
2015-11-29 00:14:00,1784E-3,5C000400,-0724,0831,12229,027.6,045.4,0.257,758.3,01.16,0.508
2015-11-29 00:15:00,1809E-3,5C000400,-0724,0832,12268,027.6,045.4,0.256,758.4,01.16,0.508
2015-11-29 00:16:00,1801E-3,5C000400,-0724,0832,12219,027.6,045.4,0.256,758.4,01.16,0.508
2015-11-29 00:17:00,1747E-3,5C000400,-0724,0832,12226,027.6,045.4,0.256,758.4,01.16,0.508
2015-11-29 00:18:00,1721E-3,5C000400,-0724,0832,12137,027.6,045.4,0.256,758.4,01.16,0.508
2015-11-29 00:19:00,1830E-3,5C000400,-0724,0832,12189,027.6,045.4,0.257,758.4,01.16,0.508
2015-11-29 00:20:00,1823E-3,5C000400,-0724,0831,12161,027.7,045.4,0.257,758.4,01.16,0.508
2015-11-29 00:21:00,1750E-3,5C000400,-0724,0832,12170,027.6,045.4,0.257,758.4,01.16,0.508
2015-11-29 00:22:00,1762E-3,5C000400,-0724,0832,12081,027.7,045.4,0.256,758.5,01.16,0.508
2015-11-29 00:23:00,1739E-3,5C000400,-0724,0831,12121,027.7,045.4,0.256,758.4,01.16,0.508
2015-11-29 00:24:00,1755E-3,5C000400,-0724,0832,12188,027.6,045.4,0.256,758.4,01.16,0.508
2015-11-29 00:25:00,1803E-3,5C000400,-0724,0833,12131,027.7,045.4,0.257,758.4,01.16,0.508
2015-11-29 00:26:00,1831E-3,5C000400,-0724,0831,12103,027.7,045.4,0.257,758.4,01.16,0.508
2015-11-29 00:27:00,1890E-3,5C000400,-0724,0832,12071,027.6,045.4,0.257,758.4,01.16,0.508
2015-11-29 00:28:00,1790E-3,5C000400,-0724,0832,12107,027.6,045.4,0.257,758.4,01.16,0.508
2015-11-29 00:29:00,1768E-3,5C000400,-0724,0832,12074,027.7,045.4,0.257,758.3,01.16,0.508
2015-11-29 00:30:00,1803E-3,5C000400,-0724,0832,12175,027.7,045.4,0.256,758.4,01.16,0.508
2015-11-29 00:31:00,1812E-3,5C000400,-0724,0831,12231,027.7,045.4,0.257,758.4,01.16,0.508
2015-11-29 00:32:00,1804E-3,5C000400,-0724,0832,12307,027.6,045.4,0.257,758.4,01.16,0.508
2015-11-29 00:33:00,1842E-3,5C000400,-0724,0831,12133,027.7,045.4,0.257,758.4,01.16,0.508
2015-11-29 00:34:00,1861E-3,5C000400,-0724,0832,12215,027.6,045.4,0.257,758.4,01.16,0.508
2015-11-29 00:35:00,1709E-3,5C000400,-0724,0832,12111,027.6,045.4,0.256,758.4,01.16,0.508
2015-11-29 00:36:00,1691E-3,5C000400,-0724,0832,12187,027.6,045.4,0.256,758.4,01.16,0.508
2015-11-29 00:37:00,1756E-3,5C000400,-0724,0831,12121,027.7,045.4,0.256,758.4,01.16,0.508
2015-11-29 00:38:00,1749E-3,5C000400,-0724,0832,12351,027.7,045.4,0.256,758.4,01.16,0.508
2015-11-29 00:39:00,1706E-3,5C000400,-0724,0831,12102,027.7,045.4,0.257,758.4,01.16,0.508
2015-11-29 00:40:00,1736E-3,5C000400,-0724,0831,12174,027.6,045.4,0.257,758.4,01.16,0.508
2015-11-29 00:41:00,1677E-3,5C000400,-0724,0832,12138,027.6,045.4,0.257,758.4,01.16,0.508
2015-11-29 00:42:00,1693E-3,5C000400,-0724,0832,12302,027.7,045.4,0.256,758.4,01.16,0.508
2015-11-29 00:43:00,1763E-3,5C000400,-0724,0831,12197,027.7,045.4,0.256,758.4,01.16,0.508
2015-11-29 00:44:00,1684E-3,5C000400,-0724,0831,12282,027.7,045.4,0.256,758.4,01.16,0.508
2015-11-29 00:45:00,1741E-3,5C000400,-0724,0832,12120,027.7,045.4,0.257,758.4,01.16,0.508
2015-11-29 00:46:00,1845E-3,5C000400,-0724,0831,12121,027.7,045.4,0.257,758.4,01.16,0.508
2015-11-29 00:47:00,1768E-3,5C000400,-0724,0831,12225,027.7,045.4,0.257,758.4,01.16,0.508
2015-11-29 00:48:00,1875E-3,5C000400,-0724,0831,12164,027.7,045.4,0.257,758.4,01.16,0.508
2015-11-29 00:49:00,1763E-3,5C000400,-0724,0831,12026,027.7,045.4,0.256,758.4,01.16,0.508
2015-11-29 00:50:00,1769E-3,5C000400,-0724,0832,12056,027.6,045.4,0.256,758.4,01.16,0.508
2015-11-29 00:51:00,1838E-3,5C000400,-0724,0832,12086,027.7,045.4,0.256,758.4,01.16,0.508
2015-11-29 00:52:00,1739E-3,5C000400,-0724,0832,12142,027.7,045.4,0.256,758.4,01.16,0.508
2015-11-29 00:53:00,1734E-3,5C000400,-0724,0832,12280,027.7,045.4,0.256,758.4,01.16,0.508
2015-11-29 00:54:00,1773E-3,5C000400,-0724,0832,12245,027.7,045.4,0.256,758.4,01.16,0.508
2015-11-29 00:55:00,1846E-3,5C000400,-0724,0832,12187,027.7,045.4,0.257,758.4,01.16,0.508
2015-11-29 00:56:00,1805E-3,5C000400,-0724,0831,12161,027.7,045.4,0.257,758.4,01.16,0.508
2015-11-29 00:57:00,1705E-3,5C000400,-0724,0832,12220,027.6,045.4,0.257,758.3,01.16,0.508
2015-11-29 00:58:00,1801E-3,5C000400,-0724,0832,12205,027.6,045.4,0.257,758.3,01.16,0.508
2015-11-29 00:59:00,1933E-3,5C000400,-0724,0832,12099,027.7,045.4,0.257,758.3,01.16,0.508
2015-11-29 01:00:00,1732E-3,5C000400,-0724,0832,12199,027.7,045.4,0.256,758.4,01.16,0.508
2015-11-29 01:01:00,1753E-3,5C000400,-0724,0832,12272,027.7,045.4,0.256,758.3,01.16,0.508
2015-11-29 01:02:00,1867E-3,5C000400,-0724,0832,12178,027.7,045.4,0.256,758.3,01.16,0.508
2015-11-29 01:03:00,1714E-3,5C000400,-0724,0831,12211,027.7,045.4,0.256,758.3,01.16,0.508
2015-11-29 01:04:00,1854E-3,5C000400,-0724,0832,12231,027.7,045.4,0.257,758.4,01.16,0.508
2015-11-29 01:05:00,1715E-3,5C000400,-0724,0832,11968,027.7,045.4,0.257,758.4,01.16,0.508
2015-11-29 01:06:00,1780E-3,5C000400,-0724,0832,12243,027.7,045.4,0.257,758.3,01.16,0.508
2015-11-29 01:07:00,1742E-3,5C000400,-0724,0831,12026,027.7,045.4,0.256,758.4,01.16,0.508
2015-11-29 01:08:00,1746E-3,5C000400,-0724,0832,12318,027.7,045.4,0.256,758.3,01.16,0.508
2015-11-29 01:09:00,1867E-3,5C000400,-0724,0832,12166,027.7,045.4,0.256,758.3,01.16,0.508
2015-11-29 01:10:00,1909E-3,5C000400,-0724,0832,12156,027.7,045.4,0.256,758.3,01.16,0.508
2015-11-29 01:11:00,1821E-3,5C000400,-0724,0831,12122,027.7,045.4,0.257,758.3,01.16,0.508
2015-11-29 01:12:00,1732E-3,5C000400,-0724,0832,12106,027.7,045.4,0.257,758.3,01.16,0.508
2015-11-29 01:13:00,1855E-3,5C000400,-0724,0832,12164,027.7,045.4,0.257,758.3,01.16,0.508
2015-11-29 01:14:00,1866E-3,5C000400,-0724,0832,12160,027.7,045.4,0.257,758.3,01.16,0.508
2015-11-29 01:15:00,1835E-3,5C000400,-0724,0831,12202,027.7,045.4,0.256,758.3,01.16,0.508
2015-11-29 01:16:00,1711E-3,5C000400,-0724,0831,12172,027.7,045.4,0.256,758.3,01.16,0.508
2015-11-29 01:17:00,1709E-3,5C000400,-0724,0832,12262,027.7,045.4,0.256,758.3,01.16,0.508
2015-11-29 01:18:00,1714E-3,5C000400,-0724,0832,12066,027.7,045.4,0.256,758.3,01.16,0.508
2015-11-29 01:19:00,1822E-3,5C000400,-0724,0831,12365,027.7,045.4,0.256,758.3,01.16,0.508
2015-11-29 01:20:00,1701E-3,5C000400,-0724,0832,12183,027.7,045.4,0.256,758.3,01.16,0.508
2015-11-29 01:21:00,1722E-3,5C000400,-0724,0832,12209,027.7,045.4,0.257,758.2,01.16,0.508
2015-11-29 01:22:00,1692E-3,5C000400,-0724,0831,12146,027.7,045.4,0.257,758.3,01.16,0.508
2015-11-29 01:23:00,1670E-3,5C000400,-0724,0831,12187,027.7,045.4,0.257,758.3,01.16,0.508
2015-11-29 01:24:00,1700E-3,5C000400,-0724,0831,12208,027.7,045.4,0.256,758.2,01.16,0.508
2015-11-29 01:25:00,1786E-3,5C000400,-0724,0831,12176,027.7,045.4,0.256,758.2,01.16,0.508
2015-11-29 01:26:00,1816E-3,5C000400,-0724,0832,12264,027.7,045.4,0.256,758.3,01.16,0.508
2015-11-29 01:27:00,1893E-3,5C000400,-0724,0831,12119,027.7,045.4,0.256,758.3,01.16,0.508
2015-11-29 01:28:00,1690E-3,5C000400,-0724,0832,11951,027.7,045.4,0.257,758.3,01.16,0.508
2015-11-29 01:29:00,1920E-3,5C000400,-0724,0831,12125,027.7,045.4,0.257,758.3,01.16,0.508
2015-11-29 01:30:00,1780E-3,5C000400,-0724,0832,12192,027.7,045.4,0.257,758.2,01.16,0.508
2015-11-29 01:31:00,1746E-3,5C000400,-0724,0831,11992,027.7,045.4,0.256,758.2,01.16,0.508
2015-11-29 01:32:00,1768E-3,5C000400,-0724,0832,12266,027.7,045.4,0.257,758.2,01.16,0.508
2015-11-29 01:33:00,1793E-3,5C000400,-0724,0831,12094,027.7,045.4,0.256,758.3,01.16,0.508
2015-11-29 01:34:00,1873E-3,5C000400,-0724,0833,12188,027.7,045.4,0.257,758.3,01.16,0.508
2015-11-29 01:35:00,1803E-3,5C000400,-0724,0832,12117,027.7,045.4,0.257,758.3,01.16,0.508
2015-11-29 01:36:00,1776E-3,5C000400,-0724,0831,12166,027.7,045.4,0.257,758.3,01.16,0.508
2015-11-29 01:37:00,1784E-3,5C000400,-0724,0831,12117,027.7,045.4,0.257,758.3,01.16,0.508
2015-11-29 01:38:00,1832E-3,5C000400,-0724,0831,12067,027.7,045.4,0.256,758.3,01.16,0.508
2015-11-29 01:39:00,1709E-3,5C000400,-0724,0831,12217,027.7,045.4,0.256,758.3,01.16,0.508
2015-11-29 01:40:00,1880E-3,5C000400,-0724,0832,12083,027.7,045.4,0.256,758.3,01.16,0.508
2015-11-29 01:41:00,1706E-3,5C000400,-0724,0831,12155,027.7,045.4,0.256,758.3,01.16,0.508
2015-11-29 01:42:00,1716E-3,5C000400,-0724,0832,12118,027.7,045.4,0.257,758.3,01.16,0.508
2015-11-29 01:43:00,1679E-3,5C000400,-0724,0832,12210,027.7,045.4,0.257,758.3,01.16,0.508
2015-11-29 01:44:00,1742E-3,5C000400,-0724,0832,12195,027.7,045.4,0.257,758.3,01.16,0.508
2015-11-29 01:45:00,1689E-3,5C000400,-0724,0831,12052,027.7,045.4,0.256,758.3,01.16,0.508
2015-11-29 01:46:00,1829E-3,5C000400,-0724,0832,12045,027.7,045.4,0.256,758.2,01.16,0.508
2015-11-29 01:47:00,1745E-3,5C000400,-0724,0831,12190,027.7,045.4,0.256,758.2,01.16,0.508
2015-11-29 01:48:00,1862E-3,5C000400,-0724,0832,12086,027.7,045.4,0.256,758.3,01.16,0.508
2015-11-29 01:49:00,1842E-3,5C000400,-0724,0832,12244,027.7,045.4,0.256,758.3,01.16,0.508
2015-11-29 01:50:00,1550E-3,5C000400,-0724,0833,12294,027.7,045.4,0.257,758.3,01.16,0.508
2015-11-29 01:51:00,1695E-3,5C000400,-0724,0832,12240,027.7,045.4,0.257,758.3,01.16,0.508
2015-11-29 01:52:00,1740E-3,5C000400,-0724,0832,12213,027.7,045.4,0.257,758.3,01.16,0.508
2015-11-29 01:53:00,1670E-3,5C000400,-0724,0832,12193,027.7,045.4,0.256,758.3,01.16,0.508
2015-11-29 01:54:00,1796E-3,5C000400,-0724,0832,12085,027.7,045.4,0.256,758.3,01.16,0.508
2015-11-29 01:55:00,1773E-3,5C000400,-0724,0831,12241,027.7,045.4,0.256,758.3,01.16,0.508
2015-11-29 01:56:00,1854E-3,5C000400,-0724,0831,12176,027.7,045.4,0.256,758.2,01.16,0.508
2015-11-29 01:57:00,1763E-3,5C000400,-0724,0832,12263,027.7,045.4,0.256,758.3,01.16,0.508
2015-11-29 01:58:00,1859E-3,5C000400,-0724,0832,12092,027.7,045.4,0.257,758.3,01.16,0.508
2015-11-29 01:59:00,1798E-3,5C000400,-0724,0832,12218,027.7,045.4,0.257,758.3,01.16,0.508
2015-11-29 02:00:00,1708E-3,5C000400,-0724,0831,12100,027.7,045.4,0.256,758.3,01.16,0.508
2015-11-29 02:01:00,1623E-3,5C000400,-0724,0831,12140,027.7,045.4,0.256,758.3,01.16,0.508
2015-11-29 02:02:00,1882E-3,5C000400,-0724,0831,12109,027.7,045.4,0.256,758.3,01.16,0.508
2015-11-29 02:03:00,1723E-3,5C000400,-0724,0832,12104,027.7,045.4,0.256,758.3,01.16,0.508
2015-11-29 02:04:00,1767E-3,5C000400,-0724,0832,12023,027.7,045.4,0.256,758.3,01.16,0.508
2015-11-29 02:05:00,1683E-3,5C000400,-0724,0831,12105,027.7,045.4,0.257,758.2,01.16,0.508
2015-11-29 02:06:00,1600E-3,5C000400,-0724,0831,12244,027.7,045.4,0.257,758.3,01.16,0.508
2015-11-29 02:07:00,1759E-3,5C000400,-0724,0832,12171,027.7,045.4,0.257,758.2,01.16,0.508
2015-11-29 02:08:00,1724E-3,5C000400,-0724,0832,12354,027.7,045.4,0.256,758.2,01.16,0.508
2015-11-29 02:09:00,1681E-3,5C000400,-0724,0831,12224,027.7,045.4,0.256,758.1,01.16,0.508
2015-11-29 02:10:00,1850E-3,5C000400,-0724,0832,12135,027.7,045.4,0.256,758.1,01.16,0.508
2015-11-29 02:11:00,1658E-3,5C000400,-0724,0831,12169,027.7,045.4,0.256,758.1,01.16,0.508
2015-11-29 02:12:00,1917E-3,5C000400,-0724,0832,12179,027.7,045.4,0.256,758.1,01.16,0.508
2015-11-29 02:13:00,1876E-3,5C000400,-0724,0831,12215,027.7,045.4,0.256,758.2,01.16,0.508
2015-11-29 02:14:00,1783E-3,5C000400,-0724,0832,12131,027.7,045.4,0.257,758.1,01.16,0.508
2015-11-29 02:15:00,1718E-3,5C000400,-0724,0832,12279,027.7,045.4,0.256,758.2,01.16,0.508
2015-11-29 02:16:00,1834E-3,5C000400,-0724,0832,12349,027.7,045.4,0.256,758.2,01.16,0.508
2015-11-29 02:17:00,1767E-3,5C000400,-0724,0832,12209,027.7,045.4,0.256,758.2,01.16,0.508
2015-11-29 02:18:00,1792E-3,5C000400,-0724,0832,12229,027.7,045.4,0.256,758.1,01.16,0.508
2015-11-29 02:19:00,1728E-3,5C000400,-0724,0832,12195,027.7,045.4,0.256,758.1,01.16,0.508
2015-11-29 02:20:00,1740E-3,5C000400,-0724,0831,11977,027.7,045.4,0.256,758.2,01.16,0.508
2015-11-29 02:21:00,1766E-3,5C000400,-0724,0832,12159,027.7,045.4,0.257,758.1,01.16,0.508
2015-11-29 02:22:00,1794E-3,5C000400,-0724,0831,12223,027.7,045.4,0.257,758.1,01.16,0.508
2015-11-29 02:23:00,1834E-3,5C000400,-0724,0832,12180,027.7,045.4,0.256,758.1,01.16,0.508
2015-11-29 02:24:00,1819E-3,5C000400,-0724,0832,12166,027.7,045.4,0.256,758.1,01.16,0.508
2015-11-29 02:25:00,1783E-3,5C000400,-0724,0831,12137,027.7,045.4,0.256,758.1,01.16,0.508
2015-11-29 02:26:00,1767E-3,5C000400,-0724,0832,12071,027.7,045.4,0.256,758.1,01.16,0.508
2015-11-29 02:27:00,1853E-3,5C000400,-0724,0831,12385,027.7,045.4,0.256,758.1,01.16,0.508
2015-11-29 02:28:00,1719E-3,5C000400,-0724,0832,12238,027.7,045.4,0.257,758.1,01.16,0.508
2015-11-29 02:29:00,1735E-3,5C000400,-0724,0831,12082,027.7,045.4,0.257,758.0,01.16,0.508
2015-11-29 02:30:00,1857E-3,5C000400,-0724,0832,12192,027.8,045.4,0.257,758.0,01.16,0.508
2015-11-29 02:31:00,1712E-3,5C000400,-0724,0831,12112,027.7,045.4,0.256,758.0,01.16,0.508
2015-11-29 02:32:00,1707E-3,5C000400,-0724,0832,12172,027.7,045.4,0.257,758.0,01.16,0.508
2015-11-29 02:33:00,1756E-3,5C000400,-0724,0832,12252,027.7,045.4,0.256,758.0,01.16,0.508
2015-11-29 02:34:00,1723E-3,5C000400,-0724,0832,12024,027.7,045.4,0.257,758.0,01.16,0.508
2015-11-29 02:35:00,1795E-3,5C000400,-0724,0833,12248,027.8,045.4,0.257,758.0,01.16,0.508
2015-11-29 02:36:00,1760E-3,5C000400,-0724,0831,12119,027.8,045.4,0.256,758.0,01.16,0.508
2015-11-29 02:37:00,1760E-3,5C000400,-0724,0831,12023,027.7,045.4,0.256,758.0,01.16,0.508
2015-11-29 02:38:00,1816E-3,5C000400,-0724,0831,12215,027.8,045.4,0.256,758.0,01.16,0.508
2015-11-29 02:39:00,1741E-3,5C000400,-0724,0831,12147,027.7,045.4,0.256,758.0,01.16,0.508
2015-11-29 02:40:00,1814E-3,5C000400,-0724,0831,12174,027.7,045.4,0.256,758.0,01.16,0.508
2015-11-29 02:41:00,1910E-3,5C000400,-0724,0832,12133,027.8,045.4,0.256,758.0,01.16,0.508
2015-11-29 02:42:00,1789E-3,5C000400,-0724,0831,12097,027.8,045.4,0.256,758.0,01.16,0.508
2015-11-29 02:43:00,1803E-3,5C000400,-0724,0832,12177,027.7,045.4,0.256,758.0,01.16,0.508
2015-11-29 02:44:00,1819E-3,5C000400,-0724,0831,12089,027.7,045.4,0.256,758.0,01.16,0.508
2015-11-29 02:45:00,1803E-3,5C000400,-0724,0833,12227,027.7,045.4,0.256,758.0,01.16,0.508
2015-11-29 02:46:00,1783E-3,5C000400,-0724,0832,12198,027.8,045.4,0.256,758.0,01.16,0.508
2015-11-29 02:47:00,1890E-3,5C000400,-0724,0832,12362,027.7,045.4,0.256,757.9,01.16,0.508
2015-11-29 02:48:00,1817E-3,5C000400,-0724,0832,12138,027.7,045.4,0.256,757.9,01.16,0.508
2015-11-29 02:49:00,1822E-3,5C000400,-0724,0832,12142,027.8,045.4,0.256,757.9,01.16,0.508
2015-11-29 02:50:00,1676E-3,5C000400,-0724,0832,12203,027.8,045.4,0.257,757.8,01.16,0.508
2015-11-29 02:51:00,1846E-3,5C000400,-0724,0832,12278,027.7,045.4,0.256,757.9,01.16,0.508
2015-11-29 02:52:00,1767E-3,5C000400,-0724,0833,12296,027.8,045.4,0.256,757.9,01.16,0.508
2015-11-29 02:53:00,1795E-3,5C000400,-0724,0832,12142,027.7,045.4,0.256,757.9,01.16,0.508
2015-11-29 02:54:00,1699E-3,5C000400,-0724,0832,12024,027.7,045.4,0.256,757.9,01.16,0.508
2015-11-29 02:55:00,1857E-3,5C000400,-0724,0832,12116,027.8,045.4,0.256,757.9,01.16,0.508
2015-11-29 02:56:00,1828E-3,5C000400,-0724,0832,12239,027.8,045.4,0.256,757.9,01.16,0.508
2015-11-29 02:57:00,1790E-3,5C000400,-0724,0832,12251,027.8,045.4,0.256,757.9,01.16,0.508
2015-11-29 02:58:00,1816E-3,5C000400,-0724,0831,12068,027.7,045.4,0.257,757.8,01.16,0.508
2015-11-29 02:59:00,1847E-3,5C000400,-0724,0832,12178,027.8,045.4,0.257,757.8,01.16,0.508
2015-11-29 03:00:00,1792E-3,5C000400,-0724,0831,12194,027.8,045.4,0.256,757.8,01.16,0.508
2015-11-29 03:01:00,1866E-3,5C000400,-0724,0832,12227,027.7,045.4,0.256,757.8,01.16,0.508
2015-11-29 03:02:00,1848E-3,5C000400,-0724,0832,12099,027.7,045.4,0.256,757.8,01.16,0.508
2015-11-29 03:03:00,1858E-3,5C000400,-0724,0831,12266,027.8,045.4,0.256,757.8,01.16,0.508
2015-11-29 03:04:00,1722E-3,5C000400,-0724,0831,12085,027.8,045.4,0.256,757.8,01.16,0.508
2015-11-29 03:05:00,1833E-3,5C000400,-0724,0832,12193,027.8,045.4,0.256,757.8,01.16,0.508
2015-11-29 03:06:00,1829E-3,5C000400,-0724,0832,12206,027.8,045.4,0.256,757.9,01.16,0.508
2015-11-29 03:07:00,1685E-3,5C000400,-0724,0832,12238,027.7,045.4,0.257,757.9,01.16,0.508
2015-11-29 03:08:00,1873E-3,5C000400,-0724,0832,12250,027.7,045.4,0.256,757.9,01.16,0.508
2015-11-29 03:09:00,1920E-3,5C000400,-0724,0832,12165,027.8,045.4,0.256,757.9,01.16,0.508
2015-11-29 03:10:00,1795E-3,5C000400,-0724,0832,12178,027.8,045.4,0.256,757.9,01.16,0.508
2015-11-29 03:11:00,1770E-3,5C000400,-0724,0831,12118,027.8,045.4,0.256,757.8,01.16,0.508
2015-11-29 03:12:00,1856E-3,5C000400,-0724,0831,12271,027.7,045.4,0.256,757.8,01.16,0.508
2015-11-29 03:13:00,1786E-3,5C000400,-0724,0831,12125,027.8,045.4,0.256,757.8,01.16,0.508
2015-11-29 03:14:00,1671E-3,5C000400,-0724,0831,12175,027.8,045.4,0.256,757.8,01.16,0.508
2015-11-29 03:15:00,1825E-3,5C000400,-0724,0832,12009,027.8,045.4,0.257,757.8,01.16,0.508
2015-11-29 03:16:00,1821E-3,5C000400,-0724,0831,12244,027.8,045.4,0.256,757.9,01.16,0.508
2015-11-29 03:17:00,1827E-3,5C000400,-0724,0832,12254,027.8,045.4,0.256,757.9,01.16,0.508
2015-11-29 03:18:00,1763E-3,5C000400,-0724,0832,12153,027.8,045.4,0.256,757.9,01.16,0.508
2015-11-29 03:19:00,1809E-3,5C000400,-0724,0832,11943,027.8,045.4,0.256,757.9,01.16,0.508
2015-11-29 03:20:00,1665E-3,5C000400,-0724,0831,12093,027.8,045.4,0.256,757.9,01.16,0.508
2015-11-29 03:21:00,1820E-3,5C000400,-0724,0831,12159,027.8,045.4,0.256,757.9,01.16,0.508
2015-11-29 03:22:00,1810E-3,5C000400,-0724,0832,12181,027.7,045.4,0.256,757.9,01.16,0.508
2015-11-29 03:23:00,1711E-3,5C000400,-0724,0831,12102,027.8,045.4,0.256,757.9,01.16,0.508
2015-11-29 03:24:00,1748E-3,5C000400,-0724,0832,12188,027.8,045.4,0.257,757.9,01.16,0.508
2015-11-29 03:25:00,1690E-3,5C000400,-0724,0831,12177,027.8,045.4,0.256,757.9,01.16,0.508
2015-11-29 03:26:00,1790E-3,5C000400,-0724,0832,12226,027.8,045.4,0.256,757.9,01.16,0.508
2015-11-29 03:27:00,1866E-3,5C000400,-0724,0832,12231,027.8,045.4,0.256,757.9,01.16,0.508
2015-11-29 03:28:00,1794E-3,5C000400,-0724,0832,12149,027.8,045.4,0.256,757.9,01.16,0.508
2015-11-29 03:29:00,1882E-3,5C000400,-0724,0833,12256,027.8,045.4,0.257,757.8,01.16,0.508
2015-11-29 03:30:00,1626E-3,5C000400,-0724,0832,11986,027.8,045.4,0.257,757.8,01.16,0.508
2015-11-29 03:31:00,1743E-3,5C000400,-0724,0831,12209,027.8,045.4,0.257,757.8,01.16,0.508
2015-11-29 03:32:00,1873E-3,5C000400,-0724,0832,12137,027.8,045.4,0.257,757.8,01.16,0.508
2015-11-29 03:33:00,1753E-3,5C000400,-0724,0832,12149,027.8,045.4,0.256,757.9,01.16,0.508
2015-11-29 03:34:00,1681E-3,5C000400,-0724,0832,12214,027.8,045.4,0.256,757.9,01.16,0.508
2015-11-29 03:35:00,1766E-3,5C000400,-0724,0833,12308,027.8,045.4,0.256,757.9,01.16,0.508
2015-11-29 03:36:00,1717E-3,5C000400,-0724,0832,12166,027.8,045.4,0.256,757.8,01.16,0.508
2015-11-29 03:37:00,1831E-3,5C000400,-0724,0831,12108,027.8,045.4,0.256,757.9,01.16,0.508
2015-11-29 03:38:00,1745E-3,5C000400,-0724,0832,12204,027.8,045.4,0.257,757.9,01.16,0.508
2015-11-29 03:39:00,1719E-3,5C000400,-0724,0832,12079,027.8,045.4,0.256,757.9,01.16,0.508
2015-11-29 03:40:00,1799E-3,5C000400,-0724,0832,12187,027.8,045.4,0.256,757.9,01.16,0.508
2015-11-29 03:41:00,1896E-3,5C000400,-0724,0832,12234,027.8,045.4,0.256,757.9,01.16,0.508
2015-11-29 03:42:00,1846E-3,5C000400,-0724,0833,12175,027.8,045.4,0.256,757.9,01.16,0.508
2015-11-29 03:43:00,1756E-3,5C000400,-0724,0831,12323,027.8,045.4,0.256,757.9,01.16,0.508
2015-11-29 03:44:00,1772E-3,5C000400,-0724,0831,12089,027.8,045.4,0.256,757.9,01.16,0.508
2015-11-29 03:45:00,1829E-3,5C000400,-0724,0832,12062,027.8,045.4,0.256,757.9,01.16,0.508
2015-11-29 03:46:00,1834E-3,5C000400,-0724,0832,12336,027.8,045.4,0.256,757.9,01.16,0.508
2015-11-29 03:47:00,1924E-3,5C000400,-0724,0831,12163,027.8,045.4,0.257,757.9,01.16,0.508
2015-11-29 03:48:00,1782E-3,5C000400,-0724,0832,12237,027.8,045.4,0.256,757.8,01.16,0.508
2015-11-29 03:49:00,1738E-3,5C000400,-0724,0832,12192,027.8,045.4,0.256,757.9,01.16,0.508
2015-11-29 03:50:00,1823E-3,5C000400,-0724,0833,12174,027.8,045.4,0.256,757.8,01.16,0.508
2015-11-29 03:51:00,1824E-3,5C000400,-0724,0832,12218,027.8,045.4,0.256,757.8,01.16,0.508
2015-11-29 03:52:00,1767E-3,5C000400,-0724,0831,12208,027.8,045.4,0.256,757.8,01.16,0.508
2015-11-29 03:53:00,1738E-3,5C000400,-0724,0832,12138,027.8,045.4,0.256,757.8,01.16,0.508
2015-11-29 03:54:00,1921E-3,5C000400,-0724,0832,12150,027.8,045.4,0.256,757.8,01.16,0.508
2015-11-29 03:55:00,1757E-3,5C000400,-0724,0831,12189,027.8,045.4,0.256,757.8,01.16,0.508
2015-11-29 03:56:00,1763E-3,5C000400,-0724,0831,12042,027.8,045.4,0.256,757.8,01.16,0.508
2015-11-29 03:57:00,1856E-3,5C000400,-0724,0832,12234,027.8,045.4,0.256,757.8,01.16,0.508
2015-11-29 03:58:00,1767E-3,5C000400,-0724,0832,12193,027.8,045.4,0.256,757.9,01.16,0.508
2015-11-29 03:59:00,1962E-3,5C000400,-0724,0832,12187,027.8,045.4,0.256,757.9,01.16,0.508
2015-11-29 04:00:00,1818E-3,5C000400,-0724,0831,12137,027.8,045.4,0.256,757.9,01.16,0.508
2015-11-29 04:01:00,1677E-3,5C000400,-0724,0831,12235,027.8,045.4,0.256,757.9,01.16,0.508
2015-11-29 04:02:00,1650E-3,5C000400,-0724,0832,12161,027.8,045.4,0.256,757.9,01.16,0.508
2015-11-29 04:03:00,1759E-3,5C000400,-0724,0833,12140,027.8,045.4,0.256,757.9,01.16,0.508
2015-11-29 04:04:00,1826E-3,5C000400,-0724,0831,12007,027.8,045.4,0.256,757.9,01.16,0.508
2015-11-29 04:05:00,1755E-3,5C000400,-0724,0832,12178,027.8,045.4,0.256,757.9,01.16,0.508
2015-11-29 04:06:00,1805E-3,5C000400,-0724,0832,12213,027.8,045.4,0.256,757.8,01.16,0.508
2015-11-29 04:07:00,1937E-3,5C000400,-0724,0832,12250,027.8,045.4,0.256,757.9,01.16,0.508
2015-11-29 04:08:00,1778E-3,5C000400,-0724,0831,12204,027.8,045.4,0.256,757.9,01.16,0.508
2015-11-29 04:09:00,1866E-3,5C000400,-0724,0832,12174,027.8,045.4,0.256,757.8,01.16,0.508
2015-11-29 04:10:00,1758E-3,5C000400,-0724,0831,12152,027.8,045.4,0.256,757.8,01.16,0.508
2015-11-29 04:11:00,1762E-3,5C000400,-0724,0832,12197,027.8,045.4,0.256,757.8,01.16,0.508
2015-11-29 04:12:00,1804E-3,5C000400,-0724,0832,12284,027.8,045.4,0.256,757.9,01.16,0.508
2015-11-29 04:13:00,1683E-3,5C000400,-0724,0832,12215,027.8,045.4,0.256,757.8,01.16,0.508
2015-11-29 04:14:00,1733E-3,5C000400,-0724,0831,12169,027.8,045.4,0.256,757.8,01.16,0.508
2015-11-29 04:15:00,1756E-3,5C000400,-0724,0831,12261,027.8,045.4,0.256,757.8,01.16,0.508
2015-11-29 04:16:00,1865E-3,5C000400,-0724,0831,12204,027.8,045.4,0.256,757.8,01.16,0.508
2015-11-29 04:17:00,1682E-3,5C000400,-0724,0832,12155,027.8,045.4,0.256,757.8,01.16,0.508
2015-11-29 04:18:00,1915E-3,5C000400,-0724,0832,12018,027.8,045.4,0.256,757.8,01.16,0.508
2015-11-29 04:19:00,1749E-3,5C000400,-0724,0831,12241,027.8,045.4,0.256,757.8,01.16,0.508
2015-11-29 04:20:00,1716E-3,5C000400,-0724,0832,12113,027.8,045.4,0.256,757.8,01.16,0.508